Location: Campo Claro
(10.4907°N, 66.8285°W)
Time: 04:05:33
(UTC+00:00)

BREEZE-M DEB (TANK) - Pass Details

Date: 01 July 2022
Orbit: 342 x 14877 km, 49.6° (Epoch: 14 August)

Event Time Altitude Azimuth Distance (km) Brightness Sun altitude
Rises 00:39:42 0° 316° (NW) 19,804 12.4 -24.2°
Reaches altitude 10° 01:12:18 10° 310° (NW) 19,124 12.0 -30.9°
Maximum altitude 02:32:59 26° 265° (W) 10,239 9.8 -45.7°
Enters shadow 02:57:03 11° 211° (SSW) 6,361 8.5 -49.3°
